[[{"header":{"parameterUnit":"m.s-1","parameterCategory":1,"la1":30.2991,"la2":30.254,"lo1":-89.0895,"lo2":-89.0444,"dy":0.0017,"dx":0.0017,"nx":28,"ny":28,"refTime":"2024-04-02T09:00:00:Z","depth":0,"parameterNumber":2,"parameterNumberName":"U-component_of_WINDS"},"data":[0,0,0,0,0,0,0,0,0,0,0,0,0,0,0,0,0,0,0,0,0,0,0,0,0,0,0,0,0,0,0,0,0,0,0,0,0,0,0,0,0,0,0,0,0,0,0,0,0,0,0,0,0,0,0,0,0,0,4.9271,4.9272,0,4.9319,4.9319,4.932,4.9284,4.9282,4.9281,4.9279,4.9327,4.933,4.9332,0,0,0,0,0,0,0,0,0,0,0,0,0,4.9151,4.9154,4.9271,4.9272,4.9273,4.9319,4.9319,4.932,4.9284,4.9282,4.928,4.9279,4.9326,4.9329,4.9332,0,0,0,0,0,0,0,0,0,0,0,0,0,4.9202,4.9154,4.9271,4.926,4.926,4.9319,4.9319,4.932,4.9285,4.9282,4.928,4.9278,4.9325,4.9329,4.9333,4.9405,0,0,4.9345,4.9347,0,0,0,0,0,0,0,0,4.9199,4.9206,4.9261,4.9261,4.9261,4.9293,4.9294,4.9348,4.9285,4.9275,4.9279,4.9277,4.9317,4.9322,4.9336,4.9407,4.9409,4.9346,4.9348,4.935,4.9351,0,0,0,0,0,0,0,4.9195,4.9204,4.929,4.9262,4.9262,4.9253,4.9258,4.9304,4.9309,4.9276,4.9273,4.9279,4.9317,4.9332,4.9337,4.941,4.9346,4.9349,4.9352,4.9353,4.9545,4.9548,0,0,0,0,0,0,4.9193,4.9201,4.9289,4.9292,4.9223,4.9258,4.9263,4.9285,4.9308,4.9309,4.9281,4.9278,4.9326,4.9332,4.9338,4.9426,4.935,4.9354,4.9356,4.9543,4.9546,4.9549,0,0,0,0,0,0,4.919,4.9201,4.9287,4.9246,4.9256,4.9262,4.9288,4.9287,4.9302,4.9312,4.9313,4.9296,4.9325,4.9333,4.9389,4.9427,4.9356,4.9359,4.9539,4.9544,4.9547,4.96,0,0,0,0,0,0,4.9187,4.92,4.9227,4.9247,4.9258,4.9337,4.929,4.929,4.931,4.9305,4.9326,4.9328,4.9323,4.9383,4.9393,4.9431,4.9362,4.9536,4.9541,4.9546,4.9595,4.9606,4.9614,0,0,0,0,0,4.9183,4.9239,4.9229,4.9239,4.9292,4.9339,4.9345,4.934,4.9313,4.934,4.9347,4.9327,4.9421,4.9389,4.94,4.944,4.9534,4.954,4.9546,4.9591,4.9603,4.9614,0,0,0,0,0,0,4.9223,4.9242,4.923,4.9294,4.9315,4.9333,4.9367,4.9353,4.9382,4.9376,4.9368,4.9373,4.9433,4.9442,4.9406,4.9512,4.9473,4.9482,4.9504,4.9516,4.9526,4.9522,4.9366,0,0,0,0,0,4.924,4.9276,4.929,4.9346,4.9357,4.936,4.938,4.9375,4.9396,4.9404,4.9415,4.9437,4.9471,4.9494,4.9526,4.9597,4.9602,4.963,4.9639,4.9647,4.9654,4.9695,4.9708,4.9568,4.9568,4.9568,0,0,4.9274,4.9288,4.9311,4.9354,4.937,4.9408,4.9368,4.941,4.9438,4.941,4.9465,4.9474,4.9498,4.9562,4.9591,4.9572,4.9694,4.9655,4.9661,4.9664,4.9702,4.9715,4.9727,4.9572,4.9572,4.9571,0,0,4.9356,4.937,4.9419,4.9436,4.9461,4.9463,4.9475,4.9495,4.9501,4.9556,4.9536,4.9571,4.963,4.9648,4.9665,4.9758,4.9741,4.9769,4.9819,4.9858,4.9869,4.9879,4.9914,4.9926,4.9776,4.9776,4.9776,0,4.9395,4.9452,4.9446,4.949,4.951,4.9488,4.9538,4.9555,4.9589,4.9604,4.9582,4.9658,4.9672,4.9741,4.9764,4.9778,4.9793,4.9766,4.9868,4.9878,4.9887,4.992,4.9933,4.9779,4.9779,4.9779,4.9778,0,4.95,4.954,4.9577,4.9611,4.9636,4.9682,4.9684,4.971,4.9703,4.9708,4.9765,4.9782,4.9818,4.9834,4.9827,4.9904,4.9892,4.9869,4.983,4.9904,4.9934,4.9947,4.9784,4.9783,4.9782,4.9781,0,0,4.9606,4.9639,4.9653,4.967,4.9697,4.9728,4.9775,4.9811,4.9834,4.9859,4.9899,4.9951,4.9932,4.9951,4.9946,4.9981,5.0055,4.9954,4.9955,4.9973,5.0143,5.016,5.0175,5.0045,5.0047,5.0049,5.0142,0,4.9691,4.9773,4.977,4.9847,4.9885,4.9866,4.9907,4.9929,4.9936,4.9969,4.9977,5.0015,4.9985,4.9997,5.003,5.0039,5.0089,5.0032,5.0083,5.0084,5.0078,5.0191,5.0208,5.0295,5.0154,5.0156,5.0157,0,4.98,4.983,4.9911,4.9935,4.9951,4.9988,5.0023,5.0055,5.008,5.0082,5.0106,5.0096,5.0145,5.0105,5.0173,5.0134,5.0155,5.0163,5.0166,5.017,5.0125,5.0199,5.0322,5.0336,5.0176,5.0174,5.0173,0,4.9871,4.9932,4.9989,5.0004,5.0033,5.006,5.0073,5.0096,5.0119,5.0149,5.0164,5.02,5.022,5.0248,5.0248,5.0219,5.0318,5.0277,5.0322,5.0323,5.0344,5.0342,5.0473,5.0356,5.0356,5.0356,5.0356,0,4.9966,5.0017,5.0022,5.0057,5.0114,5.0111,5.0167,5.0178,5.0199,5.0237,5.0222,5.0258,5.0256,5.0293,5.0293,5.0351,5.0359,5.0364,5.0363,5.0365,5.0365,5.0379,5.0373,5.0359,5.0358,5.0358,5.0357,0,5.0056,5.0061,5.0122,5.0145,5.0153,5.0194,5.0214,5.0248,5.0254,5.0302,5.0313,5.0323,5.0366,5.0369,5.0418,5.0419,5.0489,5.0481,5.0481,5.048,5.0525,5.0521,5.0669,5.0689,5.0559,5.056,5.0561,0,5.0116,5.0155,5.0183,5.0208,5.0223,5.0262,5.0286,5.0286,5.0311,5.0344,5.0375,5.0416,5.0449,5.0518,5.053,5.0568,5.0562,5.0612,5.0568,5.0569,5.0564,5.0562,5.0567,5.062,5.0621,5.0623,5.0623,0,5.0223,5.0225,5.026,5.0297,5.0327,5.0356,5.0383,5.0404,5.0407,5.0437,5.0481,5.0507,5.0558,5.06,5.0637,5.0652,5.0639,5.0637,5.065,5.0653,5.0651,5.0654,5.0505,5.0634,5.0633,5.0632,5.0631,5.0631,5.0301,5.0335,5.0361,5.0402,5.0423,5.0449,5.0483,5.0495,5.0531,5.0573,5.0571,5.062,5.0646,5.0696,5.0713,5.0752,5.0735,5.0753,5.0758,5.0763,5.0768,5.0645,5.0759,5.0758,5.0758,5.0758,5.0758,0,5.0408,5.0425,5.0462,5.0502,5.0534,5.052,5.055,5.0579,5.0622,5.0648,5.0681,5.0733,5.0774,5.079,5.0831,5.0859,5.0854,5.087,5.0868,5.0872,5.078,5.0765,5.0873,5.0873,5.0873,5.0873,5.0873,5.0873,5.0468,5.0526,5.0531,5.0601,5.0617,5.0665,5.0684,5.0709,5.073,5.0788,5.0823,5.0834,5.0856,5.0899,5.0936,5.094,5.0956,5.0975,5.0976,5.089,5.0878,5.0867,5.0853,5.0978,5.0978,5.1065,5.1066,5.1066]},{"header":{"parameterUnit":"m.s-1","parameterCategory":1,"la1":30.2991,"la2":30.254,"lo1":-89.0895,"lo2":-89.0444,"dy":0.0017,"dx":0.0017,"nx":28,"ny":28,"refTime":"2024-04-02T09:00:00:Z","depth":0,"parameterNumber":3,"parameterNumberName":"V-component_of_WINDS"},"data":[0,0,0,0,0,0,0,0,0,0,0,0,0,0,0,0,0,0,0,0,0,0,0,0,0,0,0,0,0,0,0,0,0,0,0,0,0,0,0,0,0,0,0,0,0,0,0,0,0,0,0,0,0,0,0,0,0,0,-4.7254,-4.7255,0,-4.7347,-4.7348,-4.7349,-4.7366,-4.7365,-4.7365,-4.7364,-4.7455,-4.7458,-4.7461,0,0,0,0,0,0,0,0,0,0,0,0,0,-4.7091,-4.7094,-4.7254,-4.7255,-4.7256,-4.7346,-4.7348,-4.7349,-4.7366,-4.7365,-4.7364,-4.7364,-4.7454,-4.7457,-4.7461,0,0,0,0,0,0,0,0,0,0,0,0,0,-4.717,-4.7095,-4.7254,-4.7276,-4.7279,-4.7346,-4.7348,-4.7349,-4.7366,-4.7365,-4.7364,-4.7363,-4.7452,-4.7457,-4.7462,-4.7512,0,0,-4.7476,-4.7478,0,0,0,0,0,0,0,0,-4.7166,-4.7176,-4.7272,-4.7275,-4.7278,-4.7344,-4.7324,-4.7404,-4.7367,-4.7333,-4.7364,-4.7363,-4.7418,-4.7426,-4.7445,-4.7516,-4.752,-4.7476,-4.7479,-4.7481,-4.7482,0,0,0,0,0,0,0,-4.716,-4.7173,-4.7291,-4.7273,-4.7277,-4.7281,-4.7291,-4.7339,-4.7381,-4.7336,-4.7337,-4.7348,-4.742,-4.7441,-4.7448,-4.7522,-4.7476,-4.748,-4.7483,-4.7485,-4.7641,-4.7643,0,0,0,0,0,0,-4.7151,-4.7168,-4.7288,-4.7293,-4.7218,-4.7285,-4.7296,-4.7324,-4.738,-4.7388,-4.7349,-4.7349,-4.7433,-4.7442,-4.7451,-4.7516,-4.7481,-4.7485,-4.7488,-4.764,-4.7642,-4.7643,0,0,0,0,0,0,-4.7148,-4.7162,-4.7284,-4.7231,-4.7247,-4.7289,-4.732,-4.7326,-4.7347,-4.739,-4.7397,-4.7363,-4.7433,-4.7444,-4.7498,-4.7519,-4.7487,-4.7492,-4.7638,-4.7641,-4.7642,-4.7644,0,0,0,0,0,0,-4.7143,-4.7161,-4.718,-4.7231,-4.725,-4.7329,-4.7321,-4.7329,-4.7355,-4.7356,-4.7405,-4.7412,-4.7433,-4.7491,-4.7502,-4.7525,-4.7495,-4.7637,-4.7639,-4.7642,-4.7642,-4.7646,-4.7649,0,0,0,0,0,-4.7137,-4.7176,-4.7181,-4.7195,-4.7275,-4.7331,-4.7341,-4.7365,-4.7357,-4.7377,-4.7406,-4.7411,-4.7515,-4.7496,-4.7509,-4.7533,-4.7635,-4.7639,-4.7642,-4.7641,-4.7645,-4.7649,0,0,0,0,0,0,-4.7124,-4.7183,-4.7189,-4.7246,-4.7283,-4.7333,-4.736,-4.7369,-4.7408,-4.7407,-4.7434,-4.7445,-4.7497,-4.7521,-4.7498,-4.7587,-4.7575,-4.758,-4.7569,-4.7574,-4.7577,-4.7571,-4.7499,0,0,0,0,0,-4.7128,-4.7168,-4.7217,-4.7262,-4.7281,-4.7317,-4.7342,-4.7358,-4.7397,-4.7413,-4.7445,-4.7482,-4.7524,-4.755,-4.759,-4.7646,-4.7658,-4.7669,-4.7673,-4.7675,-4.768,-4.7713,-4.772,-4.7653,-4.7653,-4.7653,0,0,-4.7135,-4.7173,-4.7196,-4.7261,-4.7291,-4.7333,-4.733,-4.7373,-4.7405,-4.7419,-4.7472,-4.7497,-4.7541,-4.7596,-4.7622,-4.7617,-4.7701,-4.7679,-4.7681,-4.7684,-4.7717,-4.7723,-4.7729,-4.7655,-4.7655,-4.7655,0,0,-4.7171,-4.7203,-4.7245,-4.7277,-4.7325,-4.7349,-4.7359,-4.7409,-4.7427,-4.7481,-4.7494,-4.7531,-4.7601,-4.7632,-4.7657,-4.7709,-4.7715,-4.7721,-4.7738,-4.777,-4.7776,-4.778,-4.78,-4.7806,-4.7725,-4.7725,-4.7725,0,-4.7174,-4.7238,-4.7265,-4.7309,-4.7338,-4.7355,-4.7398,-4.7427,-4.7485,-4.7504,-4.7498,-4.7589,-4.7619,-4.7684,-4.7697,-4.7716,-4.7729,-4.7715,-4.7773,-4.7778,-4.7783,-4.7802,-4.7809,-4.7726,-4.7726,-4.7726,-4.7726,0,-4.724,-4.7285,-4.7313,-4.7371,-4.7403,-4.7446,-4.7479,-4.7508,-4.7522,-4.7547,-4.7603,-4.7641,-4.769,-4.7706,-4.7719,-4.7773,-4.7769,-4.7767,-4.7756,-4.7789,-4.7808,-4.7815,-4.7726,-4.7726,-4.7726,-4.7726,0,0,-4.7268,-4.7343,-4.7353,-4.7381,-4.7436,-4.7471,-4.7515,-4.7566,-4.759,-4.763,-4.7669,-4.773,-4.773,-4.7758,-4.7775,-4.7803,-4.7844,-4.7799,-4.7801,-4.7807,-4.7907,-4.7908,-4.7916,-4.7849,-4.785,-4.7851,-4.7904,0,-4.7311,-4.7393,-4.742,-4.7487,-4.7529,-4.7548,-4.7587,-4.7625,-4.765,-4.7689,-4.7717,-4.776,-4.7756,-4.7774,-4.7803,-4.7833,-4.7864,-4.7829,-4.7885,-4.7887,-4.7874,-4.7926,-4.7926,-4.7974,-4.7911,-4.7912,-4.7913,0,-4.7372,-4.7415,-4.7488,-4.7541,-4.7559,-4.7594,-4.7644,-4.7681,-4.7725,-4.7742,-4.7775,-4.7791,-4.7838,-4.7825,-4.7891,-4.7867,-4.7891,-4.791,-4.7912,-4.7918,-4.7902,-4.7934,-4.799,-4.7997,-4.7925,-4.7924,-4.7923,0,-4.7386,-4.7463,-4.7517,-4.754,-4.7602,-4.7627,-4.7654,-4.7697,-4.7727,-4.777,-4.779,-4.7837,-4.7863,-4.7899,-4.7927,-4.7914,-4.7992,-4.798,-4.8007,-4.8007,-4.8022,-4.8021,-4.8083,-4.8037,-4.8037,-4.8037,-4.8037,0,-4.7432,-4.7476,-4.7525,-4.7558,-4.7608,-4.7639,-4.7688,-4.7716,-4.7755,-4.7794,-4.7812,-4.7848,-4.7883,-4.7923,-4.7945,-4.7998,-4.8009,-4.8024,-4.803,-4.8023,-4.8021,-4.8039,-4.8037,-4.8039,-4.8038,-4.8038,-4.8038,0,-4.7456,-4.7491,-4.7551,-4.7607,-4.7622,-4.7657,-4.7704,-4.7737,-4.7764,-4.7813,-4.7827,-4.7869,-4.7918,-4.795,-4.8012,-4.8027,-4.8085,-4.8089,-4.807,-4.8073,-4.8099,-4.8096,-4.8176,-4.8188,-4.8133,-4.8133,-4.8134,0,-4.7483,-4.7518,-4.7578,-4.7607,-4.7635,-4.7679,-4.771,-4.7743,-4.7774,-4.7829,-4.7856,-4.7907,-4.7949,-4.8027,-4.8063,-4.8111,-4.8117,-4.8141,-4.8124,-4.8117,-4.8118,-4.8116,-4.812,-4.8144,-4.8144,-4.8145,-4.8145,0,-4.7528,-4.7544,-4.7589,-4.764,-4.7677,-4.7719,-4.776,-4.7782,-4.7822,-4.7856,-4.7908,-4.7941,-4.8006,-4.8057,-4.8109,-4.8136,-4.8148,-4.815,-4.816,-4.8153,-4.8142,-4.815,-4.8079,-4.8148,-4.8148,-4.8148,-4.8147,-4.8147,-4.7555,-4.7588,-4.7636,-4.7686,-4.7721,-4.776,-4.7795,-4.7828,-4.7872,-4.7929,-4.7945,-4.7999,-4.8045,-4.8116,-4.8145,-4.8188,-4.8185,-4.8197,-4.8201,-4.8204,-4.8205,-4.8135,-4.8197,-4.8197,-4.8197,-4.8197,-4.8197,0,-4.7602,-4.7635,-4.768,-4.7739,-4.7779,-4.7788,-4.7835,-4.7867,-4.7915,-4.7958,-4.8,-4.8061,-4.8111,-4.8151,-4.8203,-4.823,-4.8236,-4.8242,-4.824,-4.8247,-4.8204,-4.8191,-4.8236,-4.8236,-4.8236,-4.8236,-4.8236,-4.8236,-4.7631,-4.7687,-4.7709,-4.7784,-4.7816,-4.7871,-4.7898,-4.7934,-4.7969,-4.8036,-4.8078,-4.8105,-4.8147,-4.8203,-4.8249,-4.826,-4.8278,-4.8284,-4.8295,-4.8254,-4.825,-4.8246,-4.8234,-4.8287,-4.8287,-4.8335,-4.8336,-4.8336]}]]